Volver al catálogo

ESSA 2

OT-2

ActivoMeteoSSO
NORAD 2091·PAYLOAD·🇺🇸 United States

Lanzado Feb 28, 1966 desde Cape Canaveral Space Force Station

Loading…

Próximos Pases (próximas 24 horas)

TLE

ActualizadoSource: Space-Track

Época: Sep 14, 2026, 04:16 UTC

1 02091U 66016A   26257.17827207 -.00000029  00000-0  73630-4 0  9992
2 02091 101.2217 164.1600 0039308  75.7555  85.7804 12.69432336804916

Sigue ESSA 2 en tiempo real con AllMySat

Download on the App Store